Location: Rotheul
(50.2849°N, 11.2349°E)
Time: 19:25:11
(UTC+02:00)

ISS - Visible Passes

Search period start: 24 September 2018 00:00
Search period end: 04 October 2018 00:00
Orbit: 403 x 409 km, 51.6° (Epoch: 25 September)

Date Brightness Start Highest point End Pass type
(mag) Time Alt. Az. Time Alt. Az. Time Alt. Az.
24 Sep -2.7 20:18:57 10° SSW 20:21:49 28° SSE 20:22:57 23° ESE visible
24 Sep -1.2 21:54:48 10° WSW 21:55:39 17° WSW 21:55:39 17° WSW visible
25 Sep -3.8 21:02:58 10° WSW 21:06:05 69° S 21:06:05 69° S visible
26 Sep -3.5 20:11:13 10° SW 20:14:26 50° SSE 20:16:23 21° E visible
26 Sep -1.5 21:47:36 10° W 21:49:04 24° W 21:49:04 24° W visible
27 Sep -3.9 20:55:40 10° W 20:58:59 81° NNW 20:59:16 71° NE visible
28 Sep -3.9 20:03:46 10° WSW 20:07:04 80° SSE 20:09:24 18° ENE visible
28 Sep -1.7 21:40:23 10° W 21:42:05 27° WNW 21:42:05 27° WNW visible
29 Sep -3.7 20:48:25 10° W 20:51:43 68° N 20:52:09 58° NE visible
30 Sep -3.7 19:56:27 10° W 19:59:45 76° N 20:02:12 17° ENE visible
30 Sep -1.8 21:33:04 10° WNW 21:34:52 29° WNW 21:34:52 29° WNW visible
01 Oct -3.7 20:41:06 10° W 20:44:25 68° N 20:44:52 57° NE visible
02 Oct -3.6 19:49:07 10° W 19:52:25 67° N 19:54:52 17° E visible
02 Oct -1.9 21:25:42 10° WNW 21:27:32 30° W 21:27:32 30° W visible
03 Oct -3.9 20:33:43 10° WNW 20:37:02 82° NNE 20:37:31 62° E visible
